#timestamp,LO_Frequency,Hit 
1503529215.4,286047008.0,N
1503529235.2,286047006.5,N
1503529255.1,286047011.6,N
1503529256.0,286047011.6,N
1503529275.8,286047009.7,N
1503529295.6,286047014.8,N
1503529315.4,286047017.2,N
1503529335.3,286047014.9,N
1503529355.1,286047015.2,N
1503529375.8,286047013.9,N
1503529395.7,286047009.3,N
1503529415.5,286047009.6,N
1503529435.3,286047011.5,N
1503529455.2,286047015.5,N
1503529475.9,286047017.0,N
1503529495.7,286047020.3,N
1503529515.6,286047019.7,N
1503529535.4,286047017.7,N
1503529555.2,286047018.3,N
1503529575.1,286047016.7,N
1503529576.0,286047016.7,N
1503529595.8,286047015.4,N
1503529615.6,286047014.3,N
1503529635.5,286047015.9,P
1503529655.3,286047006.6,P
1503529675.1,286047005.2,N
1503529695.9,286047003.3,N
1503529715.7,286047003.1,N
1503529735.5,286047004.6,N
1503529755.4,286047006.9,N
1503529775.2,286047005.7,N
1503529795.0,286047004.3,N
1503529795.9,286047004.3,N
1503529815.7,286047004.1,N
1503529835.6,286047006.8,N
1503529855.4,286047005.3,N
1503529875.2,286047003.2,N
1503529895.1,286047001.8,N
1503529896.0,286047001.8,N
1503529915.8,286047001.7,N
1503529935.6,286047004.2,N
1503529955.5,286047003.0,N
1503529975.3,286047002.0,N
1503529995.1,286047003.1,N
1503530015.9,286047003.2,N
1503530035.7,286047005.7,N
1503530055.5,286047007.4,N
1503530075.4,286047006.3,N
1503530095.2,286047006.7,N
1503530115.0,286047008.4,N
1503530115.9,286047008.4,N
1503530135.7,286047006.2,N
1503530155.6,286047008.1,N
1503530175.4,286047007.7,N
1503530195.3,286047007.2,P
1503530215.1,286047002.0,N
1503530216.0,286047002.0,N
1503530235.8,286046999.6,N
1503530255.6,286046996.5,N
1503530275.5,286046996.9,N
1503530295.3,286046993.8,N
1503530315.1,286046992.5,N
1503530335.9,286046992.6,N
1503530355.7,286046989.8,N
1503530375.5,286046986.0,N
1503530395.4,286046981.3,P
1503530415.2,286046986.0,N
1503530435.0,286046987.5,N
1503530435.9,286046987.5,N
1503530455.8,286046987.4,N
1503530475.6,286046988.8,N
1503530495.4,286046991.4,N
1503530515.3,286046989.0,N
1503530535.1,286046986.0,P
1503530555.8,286046998.8,N
1503530575.7,286046999.2,N
1503530595.5,286046999.1,N
1503530615.3,286047000.0,N
1503530635.2,286046999.9,N
1503530655.9,286046999.7,N
1503530675.7,286047000.7,N
1503530695.6,286046996.8,N
1503530715.4,286046999.4,N
1503530735.2,286047000.5,N
1503530755.0,286047000.3,N
1503530756.0,286047000.3,N
1503530775.8,286047003.8,N
1503530795.6,286047002.0,N
1503530815.4,286046998.2,N
1503530835.3,286046999.5,N
1503530855.1,286046997.0,N
1503530875.8,286046995.0,N
1503530895.7,286046995.6,N
1503530915.5,286046995.3,N
1503530935.3,286046994.1,N
1503530955.2,286046995.4,N
1503530975.9,286046998.4,N
1503530995.7,286047001.2,N
1503531015.6,286046996.3,N
1503531035.4,286046995.4,N
1503531055.2,286046998.3,N
1503531075.0,286047002.6,N
1503531076.0,286047002.6,N
1503531095.8,286047001.6,N
1503531115.6,286047001.3,N
1503531135.4,286047003.7,N
1503531155.3,286047010.8,P
1503531175.1,286047012.5,N
1503531195.9,286047014.6,N
1503531215.7,286047020.3,P
1503531235.5,286047009.4,N
1503531255.4,286047006.7,N
1503531275.2,286047005.6,N
1503531295.0,286047005.3,N
1503531295.9,286047005.3,N
1503531315.8,286047006.8,N
1503531335.6,286047010.6,N
1503531355.4,286047012.3,N
1503531375.3,286047013.8,P
1503531395.1,286047002.7,N
1503531396.0,286047002.7,N
1503531415.8,286047001.6,N
1503531435.7,286047004.3,N
1503531455.5,286047007.4,N
1503531475.3,286047002.9,N
1503531495.1,286047005.2,N
1503531515.9,286047005.5,N
1503531535.7,286047002.2,N
1503531555.5,286047001.3,N
1503531575.4,286047004.4,N
1503531595.2,286047001.3,N
1503531615.0,286047002.7,N
1503531615.9,286047002.7,N
1503531635.8,286046999.7,N
1503531655.6,286046999.9,N
1503531675.4,286047001.6,N
1503531695.3,286047004.2,N
1503531715.1,286047005.3,N
1503531716.0,286047005.3,N
1503531735.8,286047005.6,N
1503531755.7,286047006.9,N
1503531775.5,286047008.7,N
1503531795.3,286047006.9,N
1503531815.2,286047003.9,N
1503531835.9,286047003.5,N
1503531855.7,286047003.3,N
1503531875.5,286047001.4,N
1503531895.4,286047004.3,N
1503531915.2,286047005.8,N
1503531935.0,286047007.1,P
1503531936.0,286047007.1,P
1503531955.8,286046998.3,N
1503531975.6,286047000.3,N
1503531995.4,286046998.6,N
1503532015.3,286046998.1,N
1503532035.1,286047002.2,N
1503532055.8,286047002.0,N
1503532075.7,286047001.7,N
1503532095.5,286047004.0,N
1503532115.3,286047004.4,N
1503532135.2,286047004.0,N
1503532155.9,286047004.2,N
1503532175.7,286047003.2,N
1503532195.6,286047001.4,N
1503532215.4,286047000.2,N
1503532235.2,286046996.5,N
1503532255.1,286046997.8,N
1503532256.0,286046997.8,N
1503532275.8,286046991.6,N
1503532295.6,286046989.3,N
1503532315.5,286046990.0,N
1503532335.3,286046989.5,N
1503532355.1,286046989.4,N
1503532375.9,286046982.1,P
1503532395.7,286046982.2,N
1503532415.5,286046986.7,N
1503532435.3,286046986.5,N
1503532455.2,286046985.7,N
1503532475.0,286046986.0,N
1503532475.9,286046986.0,N
1503532495.7,286046986.6,N
1503532515.6,286046982.6,P
1503532535.4,286046994.9,N
1503532555.3,286046997.7,N
1503532575.1,286046998.5,N
1503532576.0,286046998.5,N
1503532595.8,286046996.9,N
1503532615.6,286046996.4,N
1503532635.5,286046997.5,N
1503532655.3,286046999.3,N
1503532675.1,286046995.5,N
1503532695.9,286046998.0,N
1503532715.7,286046997.8,N
1503532735.5,286046995.9,N
1503532755.4,286046995.9,N
1503532775.2,286046992.3,N
1503532795.0,286046991.3,N
1503532795.9,286046991.3,N
